Find Kuiper-00059

NORAD ID: 64519 Int'l Des: 2025-134 Owner: KUIP Country: US Constellation: kuiper operational
LEOCIRCULAR

实时位置

正在加载3D地球...

关于 Kuiper-00059

正在加载描述...

即将过境

Passes for default location (London). Set your location on the main map for personalized predictions.

高度历史

Loading altitude history...

两行轨道根数

1 64519U 25134V 26107.20325488 .00002315 00000-0 33237-3 0 9990
2 64519 51.9014 50.2766 0000951 56.0730 304.0323 14.79953792 45953
Epoch: Apr 17, 2026 • Age: 10 hours

当前状态

高度 635.0 km
速度 7.55 km/s
星下点 51.64°N, 58.07°E
发射日期 Jun 23, 2025
运行时间 0.8 years
类型 internet

技术详情

分类 Payload
质量 490.00 kg
干质量 490.00 kg
总质量 490.00 kg
长度 1.80 m
直径 0.70 m
跨度 5.00 m
形状 Box + 2 pan
制造商 KUIP
平台类型 Kuiper
阶段状态 In Orbit
所有者/国家 KUIP/US

Most Searched